| time (UTC) | temp F | wind direction | speed MPH | gust MPH | rain 1hr in | rain 24hr in | rain mn in | humidity % | barometer mb |
| 20260507065907 | 54 | 5 | 0.0 | 2.0 | 0.00 | 0.00 | 0.00 | 25 | 1006.0 |
| 20260507064906 | 54 | 9 | 0.0 | 2.0 | 0.00 | 0.00 | 0.00 | 21 | 1005.9 |
| 20260507063906 | 54 | 9 | 0.0 | 3.0 | 0.00 | 0.00 | 0.00 | 16 | 1006.0 |
| 20260507062906 | 54 | 5 | 0.0 | 2.0 | 0.00 | 0.00 | 0.00 | 12 | 1006.3 |
| 20260507061906 | 54 | 5 | 0.0 | 4.0 | 0.00 | 0.00 | 0.00 | 13 | 1006.0 |
| 20260507060906 | 55 | 355 | 0.0 | 3.0 | 0.00 | 0.00 | 0.00 | 13 | 1005.8 |
| 20260507055906 | 55 | 331 | 1.0 | 4.0 | 0.00 | 0.00 | 0.00 | 13 | 1006.0 |
| 20260507054906 | 55 | 9 | 1.0 | 2.0 | 0.00 | 0.00 | 0.00 | 5 | 1006.1 |
| 20260507053906 | 54 | 5 | 0.0 | 2.0 | 0.00 | 0.00 | 0.00 | 100 | 1006.3 |
| 20260507052906 | 54 | 360 | 0.0 | 5.0 | 0.00 | 0.00 | 0.00 | 100 | 1006.4 |
| 20260507051907 | 54 | 355 | 0.0 | 3.0 | 0.00 | 0.00 | 0.00 | 100 | 1006.4 |
| 20260507050906 | 54 | 350 | 0.0 | 4.0 | 0.00 | 0.00 | 0.00 | 100 | 1006.0 |
| 20260507045906 | 54 | 5 | 0.0 | 4.0 | 0.00 | 0.00 | 0.00 | 100 | 1006.1 |
| 20260507044906 | 54 | 5 | 0.0 | 6.0 | 0.00 | 0.00 | 0.00 | 100 | 1006.2 |
| 20260507043906 | 55 | 38 | 0.0 | 3.0 | 0.00 | 0.00 | 0.00 | 100 | 1006.2 |
| 20260507042906 | 55 | 173 | 0.0 | 2.0 | 0.00 | 0.00 | 0.00 | 100 | 1006.0 |
| 20260507041907 | 55 | 176 | 0.0 | 4.0 | 0.00 | 0.00 | 0.00 | 100 | 1006.0 |
| 20260507040906 | 55 | 87 | 0.0 | 0.0 | 0.00 | 0.00 | 0.00 | 100 | 1006.1 |
| 20260507035906 | 55 | 88 | 0.0 | 2.0 | 0.00 | 0.00 | 0.07 | 100 | 1006.3 |
| 20260507034906 | 55 | 115 | 0.0 | 0.0 | 0.00 | 0.00 | 0.07 | 100 | 1006.4 |
| 20260507033906 | 55 | 115 | 0.0 | 1.0 | 0.00 | 0.00 | 0.07 | 100 | 1006.1 |
| 20260507032906 | 55 | 115 | 0.0 | 2.0 | 0.00 | 0.00 | 0.07 | 100 | 1005.9 |
| 20260507031906 | 55 | 120 | 0.0 | 4.0 | 0.00 | 0.00 | 0.07 | 100 | 1005.8 |
| 20260507030906 | 55 | 342 | 0.0 | 2.0 | 0.00 | 0.00 | 0.07 | 100 | 1005.7 |
| 20260507025907 | 55 | 338 | 0.0 | 2.0 | 0.00 | 0.00 | 0.07 | 100 | 1005.5 |
| 20260507024906 | 55 | 80 | 0.0 | 2.0 | 0.00 | 0.00 | 0.07 | 100 | 1005.5 |
| 20260507023907 | 55 | 75 | 0.0 | 3.0 | 0.00 | 0.00 | 0.07 | 100 | 1005.7 |
| 20260507022908 | 54 | 86 | 0.0 | 3.0 | 0.00 | 0.00 | 0.07 | 100 | 1005.8 |
| 20260507021906 | 54 | 113 | 0.0 | 3.0 | 0.00 | 0.00 | 0.07 | 100 | 1005.6 |
| 20260507020908 | 54 | 130 | 0.0 | 2.0 | 0.00 | 0.00 | 0.07 | 100 | 1005.6 |
| 20260507015906 | 54 | 130 | 0.0 | 1.0 | 0.00 | 0.00 | 0.07 | 100 | 1005.7 |
| 20260507014906 | 54 | 130 | 0.0 | 1.0 | 0.00 | 0.00 | 0.07 | 100 | 1005.5 |
| 20260507013906 | 54 | 128 | 0.0 | 3.0 | 0.00 | 0.00 | 0.07 | 100 | 1005.7 |
| 20260507012906 | 54 | 134 | 0.0 | 2.0 | 0.00 | 0.00 | 0.07 | 100 | 1005.8 |
| 20260507011906 | 54 | 136 | 0.0 | 3.0 | 0.00 | 0.00 | 0.07 | 100 | 1005.9 |
| 20260507010907 | 54 | 126 | 1.0 | 5.0 | 0.00 | 0.00 | 0.07 | 100 | 1006.1 |
| 20260507005906 | 54 | 26 | 1.0 | 1.0 | 0.00 | 0.00 | 0.07 | 100 | 1006.2 |
| 20260507004907 | 54 | 22 | 0.0 | 2.0 | 0.00 | 0.00 | 0.07 | 100 | 1006.2 |
| 20260507003907 | 54 | 23 | 0.0 | 2.0 | 0.00 | 0.00 | 0.07 | 100 | 1006.2 |
| 20260507002907 | 54 | 24 | 1.0 | 2.0 | 0.00 | 0.00 | 0.07 | 100 | 1006.0 |
| 20260507001907 | 54 | 242 | 2.0 | 5.0 | 0.00 | 0.00 | 0.07 | 100 | 1006.0 |
| 20260507000907 | 55 | 122 | 0.0 | 5.0 | 0.00 | 0.00 | 0.07 | 100 | 1005.9 |
| 20260506235907 | 55 | 209 | 0.0 | 3.0 | 0.00 | 0.00 | 0.07 | 100 | 1005.6 |
| 20260506234907 | 55 | 24 | 0.0 | 5.0 | 0.00 | 0.00 | 0.07 | 100 | 1005.7 |
| 20260506233907 | 55 | 184 | 0.0 | 4.0 | 0.00 | 0.00 | 0.06 | 100 | 1005.7 |
| 20260506232908 | 56 | 127 | 0.0 | 2.0 | 0.00 | 0.00 | 0.06 | 100 | 1005.6 |
| 20260506231906 | 56 | 53 | 0.0 | 3.0 | 0.00 | 0.00 | 0.06 | 100 | 1005.6 |
| 20260506230907 | 56 | 115 | 0.0 | 3.0 | 0.00 | 0.00 | 0.05 | 100 | 1005.7 |
| 20260506225907 | 56 | 175 | 0.0 | 4.0 | 0.00 | 0.00 | 0.04 | 100 | 1005.6 |
| 20260506224907 | 56 | 205 | 1.0 | 3.0 | 0.00 | 0.00 | 0.04 | 100 | 1005.6 |
| 20260506223907 | 56 | 129 | 1.0 | 2.0 | 0.00 | 0.00 | 0.04 | 100 | 1005.8 |
| 20260506222907 | 57 | 42 | 0.0 | 3.0 | 0.00 | 0.00 | 0.04 | 100 | 1005.8 |
| 20260506221907 | 57 | 28 | 0.0 | 4.0 | 0.00 | 0.00 | 0.04 | 100 | 1006.1 |
| 20260506220907 | 57 | 127 | 0.0 | 3.0 | 0.00 | 0.00 | 0.04 | 100 | 1006.0 |
| 20260506215907 | 58 | 81 | 2.0 | 5.0 | 0.00 | 0.00 | 0.04 | 100 | 1006.1 |
| 20260506214907 | 58 | 222 | 0.0 | 6.0 | 0.00 | 0.00 | 0.04 | 100 | 1006.1 |
| 20260506213907 | 59 | 150 | 0.0 | 4.0 | 0.00 | 0.00 | 0.04 | 100 | 1006.3 |
| 20260506212907 | 59 | 148 | 2.0 | 4.0 | 0.00 | 0.00 | 0.03 | 100 | 1006.4 |
| 20260506211907 | 60 | 51 | 5.0 | 5.0 | 0.00 | 0.00 | 0.02 | 100 | 1006.3 |
| 20260506210907 | 60 | 26 | 0.0 | 4.0 | 0.00 | 0.00 | 0.02 | 100 | 1006.4 |
| 20260506205907 | 60 | 202 | 0.0 | 4.0 | 0.00 | 0.00 | 0.02 | 100 | 1006.5 |
| 20260506204907 | 60 | 99 | 0.0 | 3.0 | 0.00 | 0.00 | 0.02 | 100 | 1006.6 |
| 20260506203907 | 60 | 360 | 1.0 | 4.0 | 0.00 | 0.00 | 0.02 | 3 | 1006.7 |
| 20260506202907 | 60 | 49 | 0.0 | 6.0 | 0.00 | 0.00 | 0.02 | 7 | 1006.6 |
| 20260506201907 | 61 | 30 | 1.0 | 8.0 | 0.00 | 0.00 | 0.02 | 8 | 1006.7 |
| 20260506200907 | 61 | 329 | 2.0 | 4.0 | 0.00 | 0.00 | 0.02 | 13 | 1006.6 |
| 20260506195907 | 62 | 220 | 0.0 | 4.0 | 0.00 | 0.00 | 0.02 | 21 | 1006.5 |
| 20260506194907 | 63 | 195 | 0.0 | 6.0 | 0.00 | 0.00 | 0.02 | 27 | 1006.4 |
| 20260506193907 | 64 | 116 | 0.0 | 5.0 | 0.00 | 0.00 | 0.01 | 38 | 1006.7 |
| 20260506192907 | 65 | 169 | 0.0 | 6.0 | 0.00 | 0.00 | 0.00 | 46 | 1006.9 |
| 20260506191907 | 66 | 92 | 0.0 | 5.0 | 0.00 | 0.00 | 0.00 | 54 | 1006.8 |
| 20260506190907 | 68 | 126 | 0.0 | 4.0 | 0.00 | 0.00 | 0.00 | 62 | 1006.7 |
| 20260506185908 | 68 | 159 | 0.0 | 3.0 | 0.00 | 0.00 | 0.00 | 65 | 1006.6 |
| 20260506184908 | 69 | 214 | 1.0 | 5.0 | 0.00 | 0.00 | 0.00 | 65 | 1006.7 |
| 20260506183907 | 69 | 205 | 0.0 | 5.0 | 0.00 | 0.00 | 0.00 | 65 | 1006.7 |
| 20260506182907 | 70 | 267 | 2.0 | 7.0 | 0.00 | 0.00 | 0.00 | 64 | 1006.8 |
| 20260506181907 | 70 | 22 | 1.0 | 8.0 | 0.00 | 0.00 | 0.00 | 63 | 1006.9 |
| 20260506180907 | 72 | 178 | 5.0 | 7.0 | 0.00 | 0.00 | 0.00 | 61 | 1006.9 |
| 20260506175907 | 73 | 186 | 2.0 | 6.0 | 0.00 | 0.00 | 0.00 | 60 | 1007.0 |
| 20260506174907 | 73 | 39 | 1.0 | 5.0 | 0.00 | 0.00 | 0.00 | 60 | 1007.0 |
| 20260506173907 | 73 | 223 | 2.0 | 9.0 | 0.00 | 0.00 | 0.00 | 60 | 1007.3 |
| 20260506172907 | 72 | 153 | 3.0 | 9.0 | 0.00 | 0.00 | 0.00 | 61 | 1007.3 |
| 20260506171907 | 72 | 69 | 1.0 | 12.0 | 0.00 | 0.00 | 0.00 | 60 | 1007.3 |
| 20260506170907 | 72 | 260 | 2.0 | 8.0 | 0.00 | 0.00 | 0.00 | 62 | 1007.2 |
| 20260506165907 | 71 | 175 | 4.0 | 10.0 | 0.00 | 0.00 | 0.00 | 64 | 1007.4 |
| 20260506164907 | 72 | 276 | 0.0 | 7.0 | 0.00 | 0.00 | 0.00 | 63 | 1007.6 |
| 20260506163908 | 72 | 256 | 1.0 | 7.0 | 0.00 | 0.00 | 0.00 | 62 | 1007.7 |
| 20260506162907 | 72 | 107 | 0.0 | 7.0 | 0.00 | 0.00 | 0.00 | 63 | 1007.7 |
| 20260506161907 | 72 | 282 | 2.0 | 7.0 | 0.00 | 0.00 | 0.00 | 62 | 1007.9 |
| 20260506160907 | 72 | 248 | 5.0 | 6.0 | 0.00 | 0.00 | 0.00 | 63 | 1008.2 |
| 20260506155907 | 72 | 208 | 3.0 | 7.0 | 0.00 | 0.00 | 0.00 | 63 | 1008.4 |
| 20260506154908 | 72 | 269 | 1.0 | 11.0 | 0.00 | 0.00 | 0.00 | 62 | 1008.6 |
| 20260506153908 | 73 | 200 | 0.0 | 8.0 | 0.00 | 0.00 | 0.00 | 62 | 1008.7 |
| 20260506152908 | 73 | 305 | 2.0 | 4.0 | 0.00 | 0.00 | 0.00 | 61 | 1008.8 |
| 20260506151908 | 73 | 5 | 0.0 | 5.0 | 0.00 | 0.00 | 0.00 | 62 | 1008.8 |
| 20260506150907 | 72 | 46 | 3.0 | 7.0 | 0.00 | 0.00 | 0.00 | 63 | 1008.8 |
| 20260506145908 | 72 | 188 | 1.0 | 5.0 | 0.00 | 0.00 | 0.00 | 63 | 1009.0 |
| 20260506144907 | 71 | 49 | 3.0 | 5.0 | 0.00 | 0.00 | 0.00 | 64 | 1008.8 |
| 20260506143908 | 71 | 57 | 1.0 | 5.0 | 0.00 | 0.00 | 0.00 | 64 | 1008.9 |
| 20260506142907 | 70 | 26 | 0.0 | 9.0 | 0.00 | 0.00 | 0.00 | 64 | 1008.9 |
| 20260506141910 | 70 | 217 | 0.0 | 7.0 | 0.00 | 0.00 | 0.00 | 64 | 1008.7 |
| 20260506140907 | 70 | 11 | 2.0 | 6.0 | 0.00 | 0.00 | 0.00 | 65 | 1008.7 |
| 20260506135908 | 69 | 174 | 2.0 | 4.0 | 0.00 | 0.00 | 0.00 | 65 | 1008.9 |
| 20260506134908 | 68 | 78 | 0.0 | 5.0 | 0.00 | 0.00 | 0.00 | 64 | 1008.9 |
| 20260506133908 | 67 | 331 | 2.0 | 4.0 | 0.00 | 0.00 | 0.00 | 63 | 1009.1 |
| 20260506132908 | 66 | 85 | 0.0 | 5.0 | 0.00 | 0.00 | 0.00 | 62 | 1009.6 |
| 20260506131908 | 66 | 31 | 2.0 | 5.0 | 0.00 | 0.00 | 0.00 | 61 | 1009.5 |
| 20260506130908 | 66 | 178 | 0.0 | 7.0 | 0.00 | 0.00 | 0.00 | 59 | 1009.5 |
| 20260506125909 | 65 | 167 | 0.0 | 5.0 | 0.00 | 0.00 | 0.00 | 59 | 1009.5 |
| 20260506124908 | 65 | 230 | 0.0 | 5.0 | 0.00 | 0.00 | 0.00 | 54 | 1009.6 |
| 20260506123908 | 64 | 117 | 2.0 | 4.0 | 0.00 | 0.00 | 0.00 | 54 | 1009.6 |
| 20260506122908 | 64 | 15 | 0.0 | 6.0 | 0.00 | 0.00 | 0.00 | 50 | 1009.8 |
| 20260506121908 | 63 | 202 | 0.0 | 4.0 | 0.00 | 0.00 | 0.00 | 49 | 1009.7 |
| 20260506120907 | 62 | 22 | 1.0 | 7.0 | 0.00 | 0.00 | 0.00 | 44 | 1009.6 |
| 20260506115908 | 61 | 213 | 2.0 | 4.0 | 0.00 | 0.00 | 0.00 | 40 | 1009.9 |
| 20260506114908 | 61 | 204 | 0.0 | 7.0 | 0.00 | 0.00 | 0.00 | 39 | 1010.0 |
| 20260506113908 | 61 | 22 | 0.0 | 5.0 | 0.00 | 0.00 | 0.00 | 39 | 1010.2 |
| 20260506112908 | 61 | 138 | 2.0 | 4.0 | 0.00 | 0.00 | 0.00 | 37 | 1010.3 |
| 20260506111908 | 60 | 36 | 2.0 | 5.0 | 0.00 | 0.00 | 0.00 | 37 | 1010.0 |
| 20260506110908 | 60 | 41 | 0.0 | 3.0 | 0.00 | 0.00 | 0.00 | 35 | 1010.0 |
| 20260506105908 | 60 | 200 | 3.0 | 8.0 | 0.00 | 0.00 | 0.00 | 34 | 1009.9 |
| 20260506104908 | 60 | 153 | 0.0 | 2.0 | 0.00 | 0.00 | 0.00 | 34 | 1009.9 |
| 20260506103908 | 60 | 74 | 0.0 | 7.0 | 0.00 | 0.00 | 0.00 | 34 | 1010.0 |
| 20260506102908 | 60 | 196 | 0.0 | 3.0 | 0.00 | 0.00 | 0.00 | 34 | 1010.1 |
| 20260506101908 | 60 | 33 | 0.0 | 2.0 | 0.00 | 0.00 | 0.00 | 34 | 1010.0 |
| 20260506100908 | 59 | 33 | 0.0 | 4.0 | 0.00 | 0.00 | 0.00 | 33 | 1009.9 |
| 20260506095908 | 59 | 82 | 0.0 | 3.0 | 0.00 | 0.00 | 0.00 | 33 | 1010.0 |
| 20260506094908 | 59 | 153 | 1.0 | 3.0 | 0.00 | 0.00 | 0.00 | 34 | 1009.7 |
| 20260506093908 | 59 | 213 | 0.0 | 2.0 | 0.00 | 0.00 | 0.00 | 35 | 1009.7 |
| 20260506092908 | 59 | 82 | 0.0 | 2.0 | 0.00 | 0.00 | 0.00 | 37 | 1009.9 |
| 20260506091908 | 60 | 53 | 0.0 | 2.0 | 0.00 | 0.00 | 0.00 | 39 | 1009.8 |
| 20260506090908 | 60 | 179 | 0.0 | 3.0 | 0.00 | 0.00 | 0.00 | 41 | 1009.8 |
| 20260506085908 | 60 | 168 | 0.0 | 3.0 | 0.00 | 0.00 | 0.00 | 44 | 1009.8 |
| 20260506084908 | 60 | 179 | 0.0 | 4.0 | 0.00 | 0.00 | 0.00 | 44 | 1009.9 |
| 20260506083908 | 60 | 40 | 0.0 | 3.0 | 0.00 | 0.00 | 0.00 | 46 | 1009.8 |
| 20260506082908 | 61 | 158 | 0.0 | 2.0 | 0.00 | 0.00 | 0.00 | 48 | 1009.9 |
| 20260506081908 | 61 | 224 | 0.0 | 1.0 | 0.00 | 0.00 | 0.00 | 50 | 1009.8 |
| 20260506080908 | 61 | 28 | 0.0 | 5.0 | 0.00 | 0.00 | 0.00 | 52 | 1009.7 |
| 20260506072908 | 62 | 39 | 0.0 | 4.0 | 0.00 | 0.00 | 0.00 | 56 | 1009.8 |
| 20260506071908 | 62 | 64 | 0.0 | 5.0 | 0.00 | 0.00 | 0.00 | 57 | 1009.7 |
| 20260506070909 | 62 | 74 | 0.0 | 5.0 | 0.00 | 0.00 | 0.00 | 58 | 1009.6 |